�������l�o���
Date,Time,MP-1(��Sv/h),MP-2(��Sv/h),MP-3(��Sv/h),MP-4(��Sv/h),MP-5(��Sv/h),MP-6(��Sv/h),MP-7(��Sv/h),MP-8(��Sv/h),����,����(m/s),���J
2021/01/23,00:00,0.664,0.951,0.608,1.198,0.847,0.379,0.669,0.631,�k,7.1,��
2021/01/23,00:10,0.665,0.950,0.607,1.197,0.845,0.378,0.670,0.632,�k,7.2,��
2021/01/23,00:20,0.666,0.952,0.608,1.199,0.847,0.376,0.671,0.631,�k,7.3,��
2021/01/23,00:30,0.665,0.949,0.606,1.199,0.846,0.377,0.669,0.632,�k,7.7,��
2021/01/23,00:40,0.667,0.950,0.608,1.200,0.845,0.377,0.670,0.631,�k,7.2,��
2021/01/23,00:50,0.667,0.949,0.606,1.198,0.847,0.378,0.671,0.632,�k,7.9,��
2021/01/23,01:00,0.666,0.952,0.606,1.198,0.847,0.378,0.669,0.631,�k,8.0,��
2021/01/23,01:10,0.667,0.951,0.605,1.198,0.845,0.377,0.670,0.631,�k,7.7,��
2021/01/23,01:20,0.665,0.950,0.607,1.199,0.844,0.378,0.670,0.630,�k,7.5,��
2021/01/23,01:30,0.666,0.949,0.607,1.200,0.847,0.378,0.671,0.631,�k,6.4,��
2021/01/23,01:40,0.666,0.949,0.605,1.198,0.845,0.379,0.669,0.632,�k,6.5,��
2021/01/23,01:50,0.667,0.949,0.607,1.198,0.844,0.379,0.671,0.633,�k�k��,5.3,��
2021/01/23,02:00,0.665,0.950,0.607,1.199,0.844,0.378,0.671,0.630,�k�k��,5.0,��
2021/01/23,02:10,0.665,0.951,0.608,1.198,0.846,0.377,0.670,0.630,�k,5.8,��
2021/01/23,02:20,0.665,0.952,0.607,1.198,0.845,0.378,0.670,0.630,�k,7.1,��
2021/01/23,02:30,0.666,0.950,0.606,1.199,0.845,0.379,0.668,0.632,�k�k��,7.4,��
2021/01/23,02:40,0.665,0.952,0.605,1.198,0.845,0.378,0.670,0.633,�k,7.2,��
2021/01/23,02:50,0.666,0.951,0.606,1.201,0.845,0.377,0.670,0.630,�k�k��,7.8,��
2021/01/23,03:00,0.664,0.950,0.606,1.199,0.846,0.378,0.670,0.632,�k�k��,7.6,��
2021/01/23,03:10,0.664,0.950,0.605,1.200,0.846,0.378,0.670,0.631,�k,7.7,��
2021/01/23,03:20,0.664,0.951,0.605,1.199,0.846,0.378,0.669,0.631,�k,7.8,��
2021/01/23,03:30,0.664,0.951,0.605,1.203,0.847,0.376,0.669,0.633,�k,7.8,��
2021/01/23,03:40,0.664,0.949,0.607,1.198,0.846,0.377,0.671,0.631,�k�k��,6.9,��
2021/01/23,03:50,0.666,0.950,0.607,1.198,0.845,0.377,0.670,0.631,�k�k��,6.4,��
2021/01/23,04:00,0.665,0.951,0.607,1.200,0.846,0.378,0.670,0.630,�k�k��,7.1,��
2021/01/23,04:10,0.664,0.951,0.606,1.199,0.846,0.377,0.668,0.631,�k�k��,7.1,��
2021/01/23,04:20,0.666,0.951,0.606,1.198,0.845,0.377,0.670,0.631,�k�k��,6.6,��
2021/01/23,04:30,0.665,0.949,0.607,1.201,0.845,0.378,0.669,0.631,�k�k��,7.2,��
2021/01/23,04:40,0.665,0.950,0.607,1.198,0.846,0.378,0.670,0.632,�k�k��,6.9,��
2021/01/23,04:50,0.666,0.951,0.604,1.198,0.845,0.378,0.669,0.632,�k�k��,6.1,��
2021/01/23,05:00,0.664,0.951,0.605,1.200,0.846,0.378,0.670,0.631,�k�k��,6.9,��
2021/01/23,05:10,0.664,0.948,0.604,1.200,0.844,0.378,0.670,0.631,�k�k��,7.4,��
2021/01/23,05:20,0.664,0.951,0.606,1.200,0.844,0.376,0.668,0.631,�k�k��,6.5,��
2021/01/23,05:30,0.664,0.948,0.607,1.198,0.845,0.376,0.671,0.630,�k�k��,6.3,��
2021/01/23,05:40,0.662,0.949,0.605,1.200,0.847,0.377,0.669,0.631,�k,5.8,��
2021/01/23,05:50,0.664,0.947,0.605,1.198,0.845,0.377,0.668,0.632,�k�k��,6.6,��
2021/01/23,06:00,0.663,0.950,0.605,1.199,0.846,0.376,0.669,0.631,�k�k��,7.2,��
2021/01/23,06:10,0.664,0.950,0.607,1.198,0.845,0.378,0.669,0.632,�k�k��,6.1,��
2021/01/23,06:20,0.666,0.949,0.606,1.197,0.844,0.377,0.669,0.630,�k�k��,6.4,��
2021/01/23,06:30,0.663,0.951,0.605,1.199,0.846,0.378,0.669,0.631,�k�k��,6.3,��
2021/01/23,06:40,0.665,0.952,0.605,1.199,0.846,0.378,0.669,0.632,�k�k��,5.8,��
2021/01/23,06:50,0.664,0.951,0.607,1.199,0.845,0.375,0.670,0.630,�k�k��,6.0,��
2021/01/23,07:00,0.664,0.950,0.605,1.199,0.843,0.377,0.668,0.630,�k�k��,6.5,��
2021/01/23,07:10,0.663,0.952,0.606,1.199,0.845,0.376,0.669,0.631,�k�k��,5.7,��
2021/01/23,07:20,0.665,0.952,0.605,1.198,0.845,0.376,0.669,0.631,�k�k��,6.5,��
2021/01/23,07:30,0.664,0.950,0.607,1.200,0.846,0.377,0.668,0.632,�k�k��,5.9,��
2021/01/23,07:40,0.666,0.950,0.607,1.197,0.845,0.377,0.669,0.631,�k�k��,6.3,��
2021/01/23,07:50,0.665,0.950,0.605,1.199,0.846,0.377,0.670,0.632,�k�k��,7.0,��
2021/01/23,08:00,0.663,0.952,0.605,1.200,0.848,0.375,0.668,0.631,�k�k��,6.2,��
2021/01/23,08:10,0.662,0.947,0.607,1.198,0.844,0.376,0.670,0.632,�k�k��,6.2,��
2021/01/23,08:20,0.664,0.948,0.606,1.196,0.844,0.376,0.670,0.631,�k�k��,7.2,��
2021/01/23,08:30,0.664,0.949,0.605,1.199,0.846,0.378,0.672,0.632,�k�k��,5.4,��
2021/01/23,08:40,0.664,0.952,0.606,1.200,0.846,0.377,0.670,0.631,�k�k��,5.9,��
2021/01/23,08:50,0.666,0.950,0.607,1.199,0.846,0.377,0.670,0.631,�k�k��,6.7,��
2021/01/23,09:00,0.664,0.948,0.606,1.200,0.845,0.377,0.670,0.631,�k�k��,6.1,��
2021/01/23,09:10,0.667,0.949,0.604,1.201,0.846,0.377,0.669,0.631,�k�k��,7.0,��
2021/01/23,09:20,0.664,0.949,0.605,1.199,0.844,0.377,0.670,0.631,�k�k��,5.9,��
2021/01/23,09:30,0.663,0.949,0.607,1.199,0.848,0.376,0.669,0.631,�k�k��,5.2,��
2021/01/23,09:40,0.666,0.951,0.606,1.198,0.844,0.377,0.671,0.631,�k�k��,6.0,��
2021/01/23,09:50,0.666,0.950,0.606,1.198,0.846,0.378,0.669,0.631,�k�k��,6.1,��
2021/01/23,10:00,0.664,0.949,0.607,1.199,0.846,0.378,0.670,0.630,�k�k��,5.2,��
2021/01/23,10:10,0.665,0.951,0.606,1.197,0.847,0.378,0.670,0.632,�k�k��,5.2,��
2021/01/23,10:20,0.665,0.951,0.606,1.199,0.846,0.377,0.669,0.633,�k�k��,5.4,��
2021/01/23,10:30,0.665,0.952,0.606,1.200,0.845,0.378,0.671,0.631,�k�k��,5.5,��
2021/01/23,10:40,0.665,0.951,0.605,1.199,0.846,0.376,0.671,0.632,�k�k��,6.4,��
2021/01/23,10:50,0.664,0.950,0.605,1.200,0.846,0.378,0.669,0.630,�k�k��,6.7,��
2021/01/23,11:00,0.666,0.952,0.607,1.199,0.847,0.377,0.671,0.631,�k�k��,5.7,��
2021/01/23,11:10,0.665,0.949,0.607,1.199,0.846,0.379,0.670,0.631,�k�k��,5.1,��
2021/01/23,11:20,0.663,0.950,0.608,1.199,0.844,0.377,0.669,0.631,�k�k��,5.7,��
2021/01/23,11:30,0.665,0.951,0.606,1.199,0.846,0.376,0.669,0.632,�k�k��,6.2,��
2021/01/23,11:40,0.664,0.952,0.607,1.199,0.847,0.379,0.669,0.631,�k�k��,5.9,��
2021/01/23,11:50,0.667,0.952,0.606,1.201,0.845,0.377,0.671,0.633,�k�k��,5.3,��
2021/01/23,12:00,0.665,0.951,0.606,1.201,0.846,0.376,0.670,0.632,�k,4.7,��
2021/01/23,12:10,0.666,0.953,0.605,1.200,0.846,0.377,0.669,0.632,�k�k��,6.2,��
2021/01/23,12:20,0.665,0.953,0.606,1.199,0.846,0.379,0.668,0.632,�k�k��,5.4,��
2021/01/23,12:30,0.665,0.953,0.606,1.201,0.847,0.376,0.670,0.631,�k�k��,4.5,��
2021/01/23,12:40,0.665,0.951,0.606,1.200,0.847,0.377,0.669,0.632,�k,5.0,��
2021/01/23,12:50,0.665,0.951,0.608,1.202,0.846,0.378,0.668,0.631,�k,4.1,��
2021/01/23,13:00,0.666,0.952,0.605,1.198,0.847,0.377,0.668,0.632,�k�k��,4.5,��
2021/01/23,13:10,0.666,0.951,0.606,1.199,0.847,0.377,0.669,0.631,�k,4.7,��
2021/01/23,13:20,0.665,0.951,0.608,1.199,0.848,0.377,0.669,0.632,�k�k��,4.7,��
2021/01/23,13:30,0.665,0.951,0.608,1.204,0.846,0.377,0.669,0.632,�k�k��,4.4,��
2021/01/23,13:40,0.667,0.951,0.605,1.201,0.849,0.377,0.669,0.631,�k�k��,4.6,��
2021/01/23,13:50,0.664,0.951,0.606,1.201,0.848,0.377,0.669,0.632,�k�k��,3.9,��
2021/01/23,14:00,0.666,0.951,0.605,1.201,0.847,0.377,0.671,0.631,�k�k��,4.5,��
2021/01/23,14:10,0.663,0.951,0.606,1.201,0.846,0.376,0.669,0.631,�k�k��,5.5,��
2021/01/23,14:20,0.667,0.950,0.607,1.200,0.846,0.378,0.668,0.631,�k�k��,5.5,��
2021/01/23,14:30,0.665,0.952,0.607,1.202,0.848,0.377,0.669,0.631,�k�k��,5.3,��
2021/01/23,14:40,0.667,0.952,0.608,1.198,0.847,0.377,0.670,0.631,�k�k��,5.6,��
2021/01/23,14:50,0.665,0.951,0.607,1.202,0.848,0.378,0.669,0.632,�k�k��,4.6,��
2021/01/23,15:00,0.667,0.953,0.607,1.202,0.847,0.377,0.671,0.632,�k�k��,4.6,��
2021/01/23,15:10,0.665,0.952,0.608,1.200,0.847,0.377,0.672,0.631,�k�k��,4.5,��
2021/01/23,15:20,0.666,0.952,0.607,1.201,0.846,0.378,0.670,0.633,�k�k��,4.2,��
2021/01/23,15:30,0.666,0.951,0.607,1.201,0.845,0.377,0.670,0.632,�k��,5.1,��
2021/01/23,15:40,0.665,0.954,0.606,1.201,0.846,0.377,0.670,0.630,�k��,4.6,��
2021/01/23,15:50,0.666,0.952,0.605,1.201,0.847,0.378,0.671,0.632,�k�k��,4.3,��
2021/01/23,16:00,0.666,0.952,0.606,1.200,0.846,0.377,0.669,0.632,�k�k��,5.5,��
2021/01/23,16:10,0.664,0.953,0.606,1.201,0.846,0.378,0.669,0.632,�k�k��,5.9,��
2021/01/23,16:20,0.666,0.951,0.608,1.201,0.846,0.377,0.670,0.630,�k�k��,6.0,��
2021/01/23,16:30,0.664,0.951,0.607,1.199,0.847,0.378,0.670,0.631,�k�k��,5.1,�L
2021/01/23,16:40,0.663,0.953,0.607,1.200,0.846,0.377,0.670,0.630,�k�k��,5.0,��
2021/01/23,16:50,0.666,0.954,0.604,1.202,0.846,0.377,0.671,0.631,�k�k��,6.3,�L
2021/01/23,17:00,0.667,0.951,0.606,1.200,0.847,0.376,0.670,0.632,�k�k��,6.2,�L
2021/01/23,17:10,0.666,0.952,0.606,1.200,0.845,0.376,0.672,0.630,�k�k��,4.9,��
2021/01/23,17:20,0.664,0.953,0.607,1.199,0.847,0.378,0.671,0.631,�k,3.2,��
2021/01/23,17:30,0.665,0.952,0.607,1.203,0.847,0.377,0.671,0.631,�k,3.3,��
2021/01/23,17:40,0.666,0.954,0.606,1.201,0.846,0.376,0.670,0.631,�k��,4.5,��
2021/01/23,17:50,0.666,0.952,0.607,1.201,0.847,0.378,0.671,0.629,�k�k��,6.0,��
2021/01/23,18:00,0.665,0.953,0.606,1.200,0.849,0.377,0.670,0.631,�k��,7.8,��
2021/01/23,18:10,0.665,0.953,0.606,1.201,0.848,0.377,0.670,0.632,�k��,8.3,��
2021/01/23,18:20,0.665,0.950,0.606,1.199,0.848,0.377,0.671,0.631,�k��,7.9,��
2021/01/23,18:30,0.664,0.951,0.607,1.200,0.848,0.378,0.669,0.630,�k��,7.8,��
2021/01/23,18:40,0.664,0.951,0.607,1.201,0.847,0.377,0.669,0.631,�k��,7.5,��
2021/01/23,18:50,0.665,0.952,0.605,1.200,0.847,0.377,0.670,0.631,�k��,8.1,��
2021/01/23,19:00,0.665,0.952,0.606,1.200,0.846,0.377,0.670,0.631,�k��,8.5,��
2021/01/23,19:10,0.664,0.952,0.607,1.200,0.846,0.377,0.670,0.631,�k��,8.1,��
2021/01/23,19:20,0.665,0.951,0.607,1.199,0.846,0.379,0.671,0.631,�k��,8.3,��
2021/01/23,19:30,0.666,0.952,0.606,1.201,0.848,0.376,0.670,0.631,�k��,7.8,��
2021/01/23,19:40,0.664,0.953,0.607,1.201,0.846,0.377,0.669,0.630,�k�k��,8.1,��
2021/01/23,19:50,0.665,0.949,0.605,1.200,0.847,0.377,0.669,0.631,�k�k��,8.2,��
2021/01/23,20:00,0.666,0.951,0.607,1.202,0.847,0.376,0.669,0.629,�k�k��,7.9,��
2021/01/23,20:10,0.666,0.953,0.606,1.201,0.848,0.376,0.670,0.630,�k�k��,8.0,��
2021/01/23,20:20,0.667,0.952,0.606,1.202,0.847,0.376,0.670,0.631,�k�k��,8.3,��
2021/01/23,20:30,0.665,0.951,0.607,1.200,0.848,0.378,0.672,0.631,�k��,8.0,�L
2021/01/23,20:40,0.665,0.950,0.606,1.202,0.849,0.377,0.670,0.631,�k��,8.5,�L
2021/01/23,20:50,0.666,0.952,0.607,1.199,0.849,0.378,0.669,0.631,�k�k��,8.4,��
2021/01/23,21:00,0.665,0.954,0.606,1.199,0.847,0.377,0.669,0.630,�k��,8.3,�L
2021/01/23,21:10,0.665,0.950,0.605,1.199,0.848,0.375,0.670,0.631,�k�k��,9.2,��
2021/01/23,21:20,0.663,0.951,0.607,1.200,0.847,0.377,0.672,0.632,�k�k��,8.9,�L
2021/01/23,21:30,0.664,0.952,0.606,1.200,0.847,0.376,0.670,0.631,�k�k��,8.4,�L
2021/01/23,21:40,0.666,0.950,0.604,1.198,0.848,0.378,0.670,0.630,�k�k��,8.3,�L
2021/01/23,21:50,0.667,0.952,0.608,1.203,0.847,0.377,0.669,0.631,�k��,8.1,�L
2021/01/23,22:00,0.667,0.952,0.607,1.201,0.847,0.379,0.670,0.632,�k��,7.2,�L
2021/01/23,22:10,0.668,0.952,0.607,1.201,0.848,0.379,0.672,0.632,�k�k��,6.5,�L
2021/01/23,22:20,0.667,0.954,0.609,1.205,0.852,0.380,0.671,0.632,�k�k��,7.2,�L
2021/01/23,22:30,0.666,0.953,0.607,1.202,0.847,0.380,0.672,0.632,�k�k��,7.5,�L
2021/01/23,22:40,0.667,0.954,0.609,1.203,0.847,0.378,0.670,0.634,�k�k��,7.7,�L
2021/01/23,22:50,0.666,0.952,0.609,1.204,0.848,0.379,0.670,0.632,�k�k��,7.9,�L
2021/01/23,23:00,0.666,0.952,0.608,1.203,0.849,0.378,0.671,0.631,�k�k��,8.2,�L
2021/01/23,23:10,0.668,0.954,0.609,1.201,0.849,0.380,0.669,0.633,�k�k��,9.3,�L
2021/01/23,23:20,0.666,0.954,0.607,1.201,0.848,0.380,0.669,0.631,�k��,9.4,�L
2021/01/23,23:30,0.667,0.951,0.606,1.200,0.848,0.378,0.670,0.632,�k��,9.3,�L
2021/01/23,23:40,0.666,0.953,0.606,1.203,0.849,0.378,0.670,0.633,�k�k��,10.7,�L
2021/01/23,23:50,0.664,0.952,0.608,1.201,0.848,0.378,0.669,0.633,�k�k��,9.6,�L
